Simultaneous Nadir Overpasses (SNOs) Predictions

Prediction of SNOs between NOAA-19 and METOP-C Satellite Orbit:

Table of predicted SNOs for the next 14.0 days since TLE Epoch: 12/28/2019
Index Date (NOAA-19) Time (NOAA-19) Lat,Lon (NOAA-19) SZA (NOAA-19 ) Date (METOP-C) Time (METOP-C) Lat,Lon (METOP-C) SZA (METOP-C ) Distance(km) Time Diff (sec)
1 01/03/2020 21:03:23 -79.69, 63.93 77.06 01/03/2020 21:04:32 -79.72, 63.84 77.02 3.57 69
2 01/03/2020 21:54:29 79.69,-128.84 102.95 01/03/2020 21:55:12 79.72,-128.83 102.98 3.14 43
3 01/03/2020 22:45:24 -79.70, 38.34 77.06 01/03/2020 22:45:53 -79.71, 38.43 77.04 2.22 29
4 01/03/2020 23:36:30 79.70,-154.43 102.94 01/03/2020 23:36:34 79.68,-154.52 102.92 2.81 4
5 01/04/2020 00:27:24 -79.68, 13.05 77.07 01/04/2020 00:27:14 -79.70, 13.02 77.06 2.54 10
6 01/04/2020 01:18:30 79.68,-179.73 102.93 01/04/2020 01:17:54 79.70,-179.64 102.94 2.98 36
7 01/04/2020 02:09:25 -79.69, -12.54 77.08 01/04/2020 02:08:35 -79.69, -12.38 77.08 3.27 50




NCC Satellite Simultaneous Nadir Overpasses (SNOs) Prediction Service
